STARLINK-32575 (62173 NORAD) Tracking and Keplerian Element Data

This shows tracking and keplerian element data for the satellite.

Feedback or suggestion? Click here.




ElementValue
Catalog62173
NameSTARLINK-32575
Epoch Orbit1009
Epoch Day34.56836181
Epoch Year2025
RAAN90.6542
Inclination70.002
Eccentricity0.0002315
Argument of Perigee235.2213
Mean Anonmoly124.8749
Mean Motion15.38310204
Decay Rate9.44E-06
L11 62173U 24225L 25034.56836181 .00000944 00000+0 28641-4 0 9997
L22 62173 70.0020 90.6542 0002315 235.2213 124.8749 15.38310204 10097



Live tracking and technical data element details for STARLINK-32575 (NORAD 62173). STARLINK-32575 can be tracked NOW for your location showing map with azimuth and elevation plus other details from your city location.







IsCatalogInMostPopularTable: catalog: 62173, numindb: 13
Update: records affected: 1



GetName: 62173 STARLINK-32575

Hit Count: updated at: Sat, 24 May 2025 16:23:55 GMT